Temperature
8 8 8 8 7 7 7 7 7 7 7 7 7 7 7 7 7 7 7 6 6 6 6 6 6 6 5 5 5 5 5 5 4 4 4 4 4 4 4 4 4 4 4
8 8 7 7 7 7 7 7 7 7 7 7 7 6 6 6 6 6 6 6 6 6 6 5 5 5 5 5 5 5 4 4 4 4 4 4 4 4 4 4 3 3 3
7 7 7 7 6 6 6 6 6 6 6 6 6 6 6 6 6 6 5 5 5 5 5 5 5 5 5 4 4 4 4 4 3 3 3 3 3 3 3 3 3 3 3
7 7 6 6 6 6 6 6 6 6 6 6 6 6 5 5 5 5 5 5 5 5 5 5 4 4 4 4 4 3 3 3 3 2 2 3 2 2 2 2 2 2 2
6 6 6 6 6 6 6 5 5 5 5 5 5 5 5 5 5 5 5 4 4 4 4 4 4 4 3 3 3 3 2 2 2 2 2 2 2 2 2 1 1 1 2
6 6 5 5 5 5 5 5 5 5 5 5 5 5 5 5 4 4 4 4 4 4 4 3 3 3 3 3 2 2 2 2 2 1 1 1 2 1 1 1 1 1 1
5 5 5 5 5 5 5 5 4 4 4 4 4 4 4 4 4 4 3 3 3 3 3 3 3 2 2 2 2 2 1 1 1 1 1 1 1 1 1 0 0 -0 -0
5 5 5 5 4 4 4 4 4 4 4 4 4 4 3 3 3 3 3 3 3 3 2 2 2 2 2 1 1 1 1 1 1 0 0 0 0 0 0 -0 -0 -1 -0
4 4 4 4 4 4 4 3 3 3 3 3 3 3 3 3 3 3 2 2 2 2 2 2 1 1 1 1 0 0 0 0 0 0 -0 -0 -0 -0 -1 -1 -1 -1 -1
4 4 4 3 3 3 3 3 3 3 2 2 2 2 2 2 2 2 1 1 1 1 1 1 1 1 0 0 -0 -0 -0 -0 -0 -0 -0 -0 -1 -1 -1 -1 -1 -2 -2
3 3 3 3 3 3 3 2 2 2 2 2 2 2 2 2 1 1 1 1 1 1 1 1 1 0 -0 -0 -0 -1 -1 -1 -1 -1 -1 -1 -1 -1 -1 -1 -2 -2 -2
2 2 2 2 2 2 2 2 2 1 1 1 1 1 1 1 1 0 0 0 -0 -0 -0 0 -0 -0 -1 -1 -1 -1 -1 -1 -1 -1 -1 -1 -1 -1 -2 -2 -2 -2 -3
1 1 1 1 1 1 1 1 1 1 0 0 0 0 0 0 -0 -0 -0 -0 -0 -0 -0 -1 -1 -1 -1 -1 -1 -1 -2 -2 -2 -2 -2 -2 -2 -2 -2 -2 -2 -3 -3
0 0 0 0 0 0 0 0 0 -0 -0 -0 -1 -1 -1 -1 -1 -1 -1 -1 -1 -1 -1 -1 -1 -1 -2 -2 -2 -2 -2 -2 -2 -2 -2 -2 -3 -3 -3 -3 -3 -3 -3
-0 -0 -0 -0 -0 -0 -1 -1 -1 -1 -1 -1 -1 -1 -1 -1 -1 -1 -1 -1 -1 -1 -2 -2 -2 -2 -2 -2 -2 -2 -2 -3 -3 -3 -3 -3 -3 -3 -3 -3 -4 -4 -4
-1 -1 -1 -1 -1 -1 -1 -1 -1 -1 -1 -2 -2 -2 -2 -2 -2 -2 -2 -2 -2 -2 -2 -2 -2 -2 -2 -2 -3 -3 -3 -3 -3 -3 -3 -3 -3 -3 -4 -4 -4 -4 -5
-2 -2 -2 -2 -2 -2 -2 -2 -2 -2 -2 -2 -2 -2 -2 -2 -2 -2 -2 -2 -3 -3 -3 -3 -3 -3 -3 -3 -3 -3 -3 -3 -3 -4 -4 -4 -4 -4 -4 -4 -5 -5 -5
-2 -2 -2 -2 -2 -2 -2 -3 -3 -2 -2 -2 -3 -3 -3 -3 -3 -3 -3 -3 -3 -3 -3 -3 -3 -3 -3 -3 -4 -4 -4 -4 -4 -4 -4 -4 -4 -5 -5 -5 -5 -5 -5
-3 -3 -3 -3 -3 -3 -3 -3 -3 -3 -3 -3 -3 -3 -3 -3 -3 -3 -3 -4 -3 -3 -3 -4 -4 -4 -4 -4 -4 -4 -4 -4 -5 -5 -5 -5 -5 -5 -5 -5 -6 -6 -6
-3 -4 -4 -4 -4 -4 -4 -4 -4 -4 -4 -4 -4 -4 -4 -4 -4 -4 -4 -4 -4 -4 -4 -4 -4 -4 -4 -5 -5 -5 -5 -5 -5 -5 -5 -5 -6 -6 -6 -6 -6 -6 -6
-4 -4 -4 -4 -4 -4 -4 -4 -4 -4 -4 -4 -4 -4 -5 -5 -5 -5 -5 -5 -5 -5 -5 -5 -5 -5 -5 -5 -5 -5 -5 -6 -6 -6 -6 -6 -6 -6 -6 -7 -7 -7 -7
-5 -5 -5 -5 -5 -5 -5 -5 -5 -5 -5 -5 -5 -5 -5 -5 -5 -5 -5 -5 -5 -5 -5 -5 -5 -5 -6 -6 -6 -6 -6 -6 -6 -6 -6 -6 -7 -7 -7 -7 -7 -7 -7
-5 -5 -5 -5 -5 -5 -5 -5 -5 -5 -5 -6 -6 -6 -6 -6 -6 -6 -6 -6 -6 -6 -6 -6 -6 -6 -6 -6 -6 -6 -6 -6 -6 -7 -7 -7 -7 -7 -7 -7 -7 -7 -7
-6 -6 -6 -6 -6 -6 -6 -6 -6 -6 -6 -6 -6 -6 -6 -6 -6 -6 -6 -6 -6 -6 -6 -6 -6 -6 -6 -6 -6 -6 -6 -7 -7 -7 -7 -7 -7 -7 -7 -7 -8 -8 -8
-6 -6 -6 -6 -6 -6 -6 -6 -6 -6 -7 -7 -7 -7 -6 -6 -6 -6 -6 -6 -6 -6 -6 -6 -6 -6 -6 -6 -6 -6 -7 -7 -7 -7 -7 -7 -7 -7 -7 -8 -8 -8 -8
-7 -7 -7 -7 -7 -7 -7 -7 -7 -7 -7 -7 -7 -7 -7 -7 -7 -7 -7 -7 -7 -7 -7 -7 -7 -7 -7 -7 -7 -7 -7 -7 -7 -7 -7 -7 -7 -7 -8 -8 -8 -8 -8
Wind_Speed
8 8 8 8 7 7 7 6 6 6 6 6 6 5 5 4 4 4 4 4 4 3 2 3 3 2 2 2 2 2 2 3 4 4 2 3 2 4 6 7 8 9 10
7 7 8 7 7 7 6 6 6 6 6 6 6 5 5 5 4 5 5 4 5 4 4 3 3 2 2 2 2 3 3 3 3 5 4 3 4 4 4 5 7 8 9
8 8 7 7 7 7 6 6 6 6 5 5 6 6 5 5 5 5 5 5 5 5 5 5 4 3 3 3 3 3 3 3 3 4 5 3 3 3 4 5 5 6 8
7 8 8 8 8 7 6 6 6 6 6 6 5 5 5 5 5 5 5 5 4 4 4 5 5 5 5 4 3 4 3 3 3 3 4 4 4 3 3 4 5 4 5
7 7 7 7 6 6 6 5 5 5 5 5 5 5 4 5 5 5 5 5 5 4 4 4 4 6 7 5 4 4 4 3 3 3 4 4 4 3 4 3 5 5 5
7 7 6 6 6 6 6 5 5 5 4 4 4 5 4 4 6 6 5 4 5 5 4 4 4 5 6 7 7 7 6 5 5 5 5 6 6 5 4 4 4 5 5
6 6 5 6 6 5 5 5 5 5 4 4 4 4 4 5 6 6 6 4 5 5 5 4 4 4 5 3 5 7 7 9 9 7 7 7 7 6 5 5 5 5 6
5 5 5 6 5 5 5 5 4 4 4 4 4 4 4 5 5 5 4 3 4 4 5 5 5 4 4 4 3 4 5 5 7 6 7 8 7 6 6 6 6 5 5
5 5 5 6 6 5 5 4 3 3 3 3 3 4 4 4 5 5 4 2 3 4 4 4 5 5 7 7 4 4 5 5 7 9 10 10 11 11 8 4 3 4 6
4 4 4 5 5 5 5 4 3 3 3 3 2 3 4 4 5 5 5 3 3 3 3 4 6 7 8 8 5 5 6 6 5 4 5 7 7 8 9 6 5 5 5
3 3 3 3 4 4 4 3 3 3 2 2 2 2 3 4 5 6 6 3 4 4 4 4 4 7 9 9 8 6 8 7 4 4 4 4 4 4 5 5 5 5 5
3 4 3 3 2 3 4 3 3 3 3 2 2 2 2 3 4 5 6 6 5 4 5 4 5 8 9 10 8 8 9 7 3 3 4 5 5 5 4 5 7 7 8
4 3 3 3 2 2 3 3 2 2 2 2 2 3 3 3 3 6 6 6 6 4 4 6 7 8 8 7 8 9 7 4 3 4 5 6 5 4 4 3 4 5 7
4 3 3 2 2 1 1 2 2 2 2 2 3 3 3 3 3 3 3 4 5 4 4 5 6 7 6 6 6 5 4 5 5 5 6 5 4 3 4 3 4 3 4
4 3 2 2 2 1 1 0 2 2 4 3 3 3 4 4 5 6 5 4 3 4 3 2 2 2 3 3 3 4 4 4 5 4 5 5 4 4 4 3 3 3 4
3 2 1 1 1 1 0 1 2 2 3 3 4 4 4 6 7 7 7 7 6 5 3 3 4 4 5 5 5 5 4 5 5 5 5 5 5 5 5 4 4 4 5
2 1 1 1 0 0 0 1 2 3 3 3 4 5 5 6 7 7 7 7 6 4 3 4 4 5 5 5 5 5 5 5 5 5 6 6 5 5 5 5 4 5 5
2 1 1 0 0 1 1 1 2 2 3 3 4 5 6 6 6 6 6 4 3 3 3 4 5 5 5 5 5 5 5 5 4 5 5 5 5 5 5 5 5 5 6
1 1 1 1 1 1 1 1 2 2 2 3 3 4 5 5 6 5 4 2 3 4 4 4 4 5 5 5 5 5 5 5 5 5 5 5 5 5 5 5 5 7 6
2 2 1 1 1 1 1 1 2 2 2 3 3 3 3 3 3 3 3 3 3 4 4 4 5 5 5 5 5 4 4 5 5 5 5 5 5 5 5 6 5 5 5
1 2 3 1 1 1 2 2 2 2 3 3 4 5 6 3 3 4 4 3 4 4 4 4 4 4 4 4 4 5 6 5 5 5 5 5 5 5 5 5 5 5 5
1 2 2 2 2 2 2 2 2 3 3 4 4 5 7 4 3 4 4 4 4 4 4 4 4 4 4 4 5 5 5 6 5 5 5 5 5 5 5 5 5 5 5
2 2 2 2 2 3 3 3 3 3 3 4 4 4 4 4 4 4 4 4 4 4 4 4 4 4 5 5 6 5 6 6 6 6 5 5 5 5 5 5 6 6 5
2 2 2 2 2 2 3 3 3 4 4 4 4 4 4 4 5 5 5 5 4 4 5 5 5 6 7 7 7 8 8 9 8 7 7 6 6 5 5 5 5 6 5
2 2 2 3 3 3 3 3 4 4 4 4 4 4 5 5 5 5 5 5 5 5 6 6 6 6 8 9 9 9 10 11 10 8 7 6 6 6 6 6 5 5 5
2 2 3 3 3 3 3 4 4 4 4 4 4 4 5 5 5 5 5 5 5 5 5 6 7 8 9 9 9 10 11 11 10 10 8 6 6 5 5 5 5 5 5
Wind_Direction
167 166 160 159 157 155 157 161 161 158 158 164 168 170 172 171 167 167 172 170 172 180 182 185 202 199 198 219 215 210 220 217 248 274 267 282 276 285 296 291 288 289 289
157 153 154 153 153 155 160 163 162 162 163 168 168 173 179 180 180 182 186 188 189 194 201 199 215 212 211 226 222 222 229 224 231 262 281 283 275 274 279 287 289 289 289
155 153 152 155 161 166 168 166 163 163 167 170 173 180 185 187 189 194 194 197 202 206 205 207 216 210 227 237 236 237 243 245 235 247 274 283 285 284 288 290 289 292 292
155 160 165 170 172 171 166 166 168 168 173 180 184 188 191 192 194 195 194 197 204 213 215 216 218 217 222 225 235 231 231 238 241 250 270 282 285 285 278 286 295 290 292
158 164 173 170 164 160 160 165 167 171 178 181 183 190 194 196 199 195 195 197 201 211 223 227 228 229 231 232 238 229 217 228 241 253 265 280 283 286 278 276 286 295 290
161 169 167 158 158 162 164 164 163 170 175 176 188 194 202 212 211 209 205 199 203 209 224 236 237 238 241 249 253 251 236 231 234 244 258 262 270 269 274 276 284 294 292
158 159 157 158 162 166 163 161 167 173 173 182 197 198 210 219 217 217 218 207 207 216 222 229 246 247 253 242 258 266 262 256 247 240 245 253 260 257 259 272 269 269 274
150 150 152 155 159 159 159 166 171 174 178 189 202 205 209 221 220 224 227 217 214 224 226 224 228 240 237 240 242 256 263 265 257 250 242 247 249 247 244 253 259 268 274
150 155 160 161 159 159 165 172 173 170 181 194 199 201 207 225 226 230 236 215 225 237 236 228 227 234 249 257 253 255 270 274 272 264 262 263 267 269 265 260 261 273 285
161 160 156 157 160 167 172 173 171 172 186 191 211 215 213 224 235 237 237 212 228 248 255 246 246 246 253 256 249 242 258 268 268 276 272 274 271 266 263 247 235 254 277
140 131 131 139 151 158 158 160 162 168 169 182 217 246 237 236 242 243 243 227 220 237 250 253 249 255 259 259 259 249 255 265 259 257 264 266 265 258 256 249 235 234 253
111 119 122 128 138 139 144 153 162 164 169 191 214 262 261 249 248 249 252 252 250 237 244 249 250 259 263 265 265 262 267 273 255 255 264 262 257 257 256 251 249 248 250
98 103 105 103 104 124 145 159 164 167 186 214 223 246 265 261 250 257 260 258 262 258 248 254 264 268 269 267 263 266 269 257 245 251 256 259 252 251 256 266 268 265 268
91 86 90 95 87 76 116 162 177 193 207 227 235 248 263 269 264 256 249 249 254 262 264 265 272 274 274 269 267 264 255 245 246 247 253 257 254 250 252 252 262 269 278
80 82 81 86 104 88 60 214 218 224 218 226 231 237 246 260 260 267 268 257 248 247 265 273 274 275 269 266 264 259 252 251 255 250 250 254 253 250 252 244 246 256 264
80 70 73 80 81 85 53 356 341 285 288 280 272 272 271 270 274 273 272 273 276 265 272 248 251 251 251 253 257 263 257 250 251 252 251 249 248 248 250 248 247 249 261
75 64 58 66 61 359 309 299 319 330 318 299 289 291 290 288 283 277 273 271 266 261 262 243 247 249 253 254 256 259 262 258 252 250 250 250 248 246 245 248 250 255 262
48 35 32 33 280 276 276 278 275 288 307 311 308 303 302 299 295 289 278 278 263 259 253 249 252 253 256 258 259 261 265 265 259 253 252 251 246 245 248 248 246 251 261
23 2 16 14 340 312 303 299 292 287 290 297 308 311 311 307 303 294 289 260 249 257 260 259 258 258 257 256 258 258 258 258 258 255 251 247 242 241 247 246 247 255 263
12 5 5 356 340 329 317 307 303 297 297 297 299 301 309 314 300 297 292 270 263 265 265 265 266 262 258 256 255 254 256 256 255 254 253 249 243 240 243 245 247 252 258
355 347 357 354 321 301 294 289 288 289 292 293 291 292 300 296 286 284 285 281 274 272 270 269 269 264 258 253 251 251 253 256 252 252 253 251 243 242 243 244 245 249 256
343 332 327 317 310 303 297 291 289 287 289 293 296 299 301 297 286 285 285 285 281 274 269 268 266 261 254 250 250 252 254 255 251 247 249 250 245 241 242 243 245 248 251
327 322 317 309 303 308 314 306 297 291 290 291 292 297 298 293 288 285 285 288 286 278 269 264 267 267 262 255 249 246 251 252 248 243 246 249 246 241 239 241 243 248 251
311 307 305 307 309 306 302 299 297 295 294 292 294 295 295 296 294 293 293 291 285 278 272 267 263 263 265 264 260 258 257 258 252 244 239 242 243 241 240 242 244 244 244
317 311 307 303 302 299 297 297 298 298 297 296 296 298 300 301 299 298 297 292 285 281 276 273 270 267 266 265 265 265 267 268 265 254 240 234 234 234 237 240 240 239 237
318 311 306 303 300 298 297 297 295 294 292 293 294 295 295 295 295 296 297 295 292 287 280 276 274 274 275 273 271 273 274 273 269 263 249 232 228 232 232 237 235 235 234
Height
1462 1464 1468 1471 1475 1478 1481 1484 1487 1490 1492 1495 1497 1499 1501 1503 1504 1506 1507 1509 1510 1511 1512 1514 1514 1515 1515 1515 1515 1515 1516 1515 1512 1511 1512 1512 1512 1512 1511 1511 1510 1508 1507
1460 1462 1465 1469 1472 1475 1478 1482 1484 1487 1489 1492 1494 1496 1498 1500 1501 1503 1504 1506 1507 1508 1509 1510 1510 1511 1511 1511 1511 1511 1511 1510 1509 1507 1506 1507 1507 1507 1506 1505 1504 1503 1502
1458 1461 1464 1467 1470 1473 1476 1479 1482 1484 1486 1489 1491 1492 1494 1496 1498 1499 1500 1502 1503 1504 1505 1506 1506 1507 1506 1507 1506 1506 1506 1506 1505 1503 1502 1502 1502 1502 1501 1500 1499 1498 1496
1456 1459 1462 1465 1468 1471 1474 1477 1479 1481 1483 1485 1487 1489 1490 1492 1494 1495 1496 1498 1499 1500 1501 1501 1502 1502 1502 1502 1501 1501 1501 1501 1500 1499 1498 1497 1497 1497 1496 1494 1493 1492 1491
1453 1457 1459 1462 1466 1468 1471 1473 1476 1478 1480 1482 1484 1485 1487 1489 1490 1491 1492 1493 1495 1495 1496 1497 1497 1497 1497 1497 1497 1496 1496 1496 1495 1494 1493 1492 1492 1491 1490 1489 1487 1486 1484
1452 1455 1457 1460 1463 1465 1468 1470 1473 1475 1477 1478 1480 1482 1483 1485 1486 1487 1488 1489 1490 1491 1491 1492 1492 1492 1492 1492 1492 1492 1492 1492 1491 1490 1489 1487 1487 1487 1486 1484 1483 1481 1478
1450 1452 1455 1457 1460 1462 1465 1467 1469 1471 1473 1474 1476 1478 1479 1481 1482 1483 1484 1485 1485 1486 1486 1487 1487 1487 1487 1487 1486 1486 1486 1486 1486 1486 1484 1483 1482 1482 1481 1479 1478 1476 1474
1448 1450 1453 1455 1457 1460 1462 1464 1466 1468 1469 1471 1472 1474 1475 1476 1478 1478 1479 1480 1480 1481 1481 1482 1481 1481 1482 1482 1481 1480 1480 1480 1480 1480 1479 1478 1477 1477 1476 1475 1473 1471 1469
1446 1448 1450 1452 1455 1457 1459 1461 1463 1464 1466 1467 1469 1470 1471 1472 1473 1474 1475 1475 1475 1476 1476 1476 1476 1476 1476 1477 1476 1475 1474 1474 1475 1474 1473 1473 1472 1471 1470 1469 1467 1466 1462
1444 1446 1448 1450 1452 1454 1456 1458 1460 1461 1462 1464 1465 1466 1467 1467 1469 1469 1470 1470 1470 1470 1470 1471 1471 1471 1471 1472 1471 1470 1469 1468 1468 1468 1467 1467 1466 1465 1464 1464 1462 1460 1458
1442 1444 1446 1448 1450 1452 1453 1455 1457 1458 1459 1460 1461 1462 1462 1463 1464 1465 1465 1465 1465 1465 1465 1465 1466 1466 1466 1466 1466 1465 1464 1463 1462 1462 1461 1460 1459 1459 1458 1457 1456 1455 1453
1440 1442 1444 1446 1448 1449 1451 1452 1453 1454 1455 1456 1456 1457 1458 1459 1459 1460 1460 1461 1461 1460 1460 1460 1461 1461 1461 1460 1460 1459 1459 1458 1457 1456 1455 1454 1453 1452 1451 1451 1450 1449 1448
1439 1440 1442 1444 1445 1447 1448 1449 1450 1450 1451 1452 1452 1453 1453 1454 1455 1455 1455 1455 1456 1456 1456 1456 1456 1455 1455 1454 1454 1454 1453 1452 1451 1450 1448 1448 1447 1446 1445 1444 1443 1442 1441
1437 1439 1440 1441 1443 1444 1445 1446 1446 1447 1448 1448 1449 1449 1449 1449 1450 1450 1450 1450 1451 1451 1451 1450 1450 1450 1449 1449 1448 1447 1447 1446 1445 1444 1443 1442 1441 1440 1439 1438 1437 1436 1434
1436 1438 1439 1440 1441 1441 1442 1443 1444 1444 1445 1445 1445 1446 1445 1445 1446 1446 1446 1446 1446 1446 1445 1445 1444 1444 1443 1443 1442 1442 1441 1440 1439 1438 1437 1436 1435 1434 1433 1432 1431 1430 1428
1436 1437 1438 1438 1439 1439 1440 1440 1441 1442 1442 1442 1443 1443 1442 1442 1442 1442 1441 1441 1441 1441 1441 1440 1439 1439 1438 1437 1437 1436 1435 1434 1433 1432 1431 1430 1429 1428 1427 1426 1425 1424 1422
1436 1436 1436 1437 1437 1437 1437 1437 1437 1439 1439 1439 1439 1439 1439 1438 1438 1437 1436 1436 1436 1436 1435 1435 1434 1434 1433 1432 1431 1430 1429 1428 1427 1426 1425 1424 1423 1422 1421 1420 1419 1418 1417
1435 1435 1435 1435 1435 1435 1435 1435 1435 1435 1435 1435 1435 1435 1434 1434 1433 1432 1432 1431 1430 1430 1430 1429 1429 1428 1428 1427 1426 1425 1424 1423 1421 1420 1419 1418 1417 1416 1415 1414 1413 1412 1411
1434 1434 1433 1433 1433 1433 1433 1433 1433 1432 1432 1431 1431 1431 1430 1430 1429 1428 1427 1426 1425 1425 1424 1424 1424 1423 1422 1421 1420 1419 1418 1417 1416 1414 1413 1412 1411 1411 1409 1409 1408 1407 1406
1432 1432 1432 1431 1431 1431 1431 1430 1430 1429 1429 1428 1427 1427 1426 1425 1424 1423 1423 1422 1421 1420 1419 1419 1418 1418 1417 1416 1415 1414 1412 1411 1410 1409 1408 1407 1406 1405 1404 1403 1402 1401 1400
1430 1430 1430 1429 1429 1428 1428 1427 1427 1426 1425 1425 1424 1423 1423 1421 1420 1419 1418 1417 1416 1415 1414 1414 1413 1412 1411 1410 1409 1408 1407 1405 1404 1403 1402 1401 1400 1399 1398 1398 1397 1396 1395
1428 1428 1427 1427 1426 1425 1425 1424 1424 1423 1422 1421 1421 1420 1419 1418 1416 1415 1414 1413 1412 1411 1410 1409 1408 1407 1406 1405 1404 1402 1401 1400 1399 1398 1397 1396 1395 1394 1393 1393 1392 1391 1391
1426 1425 1425 1424 1423 1423 1422 1421 1421 1420 1419 1418 1417 1416 1415 1414 1412 1411 1409 1408 1407 1406 1405 1404 1403 1402 1401 1400 1399 1397 1396 1395 1394 1393 1392 1390 1389 1389 1388 1387 1387 1386 1386
1424 1423 1422 1421 1421 1420 1419 1418 1418 1417 1416 1415 1414 1412 1411 1410 1408 1407 1405 1404 1403 1401 1400 1399 1398 1397 1396 1394 1393 1392 1391 1390 1389 1387 1387 1385 1384 1384 1383 1383 1382 1382 1382
1421 1420 1419 1419 1418 1417 1416 1415 1414 1413 1412 1411 1410 1408 1407 1405 1404 1402 1401 1399 1398 1397 1395 1394 1393 1392 1390 1389 1388 1387 1386 1385 1384 1383 1382 1381 1380 1379 1379 1378 1378 1378 1377
1418 1417 1416 1415 1414 1413 1412 1411 1410 1409 1408 1407 1406 1404 1403 1401 1400 1398 1396 1395 1393 1392 1391 1389 1388 1387 1385 1384 1383 1382 1381 1380 1379 1378 1377 1376 1376 1375 1375 1374 1374 1374 1373